Tuxtla Gutierrez, Mexico

7:50 AM CST on December 11, 2017 (GMT -0600)
Francisco Sarabia

Weather History for MMTG - December, 2012

Change the Weather History Date:

Saturday, December 8, 2012

  Actual Average Record
Temperature  
Mean Temperature 75 °F -  
Max Temperature 90 °F 74 °F 92 °F (2016)
Min Temperature 60 °F 59 °F 50 °F (2000)
Cooling Degree Days 10    
Growing Degree Days 25 (Base 50)    
Moisture  
Dew Point 60 °F    
Average Humidity 62    
Maximum Humidity 94    
Minimum Humidity 31    
Precipitation  
Precipitation 0.00 in - - ()
Sea Level Pressure  
Sea Level Pressure 29.87 in    
Wind  
Wind Speed 3 mph ()    
Max Wind Speed 58 mph    
Max Gust Speed -    
Visibility 8.9 miles    
Events      
Averages and records for this station are not official NWS values.
T = Trace of Precipitation, MM = Missing Value Source: Averaged Metar Reports

Daily Weather History Graph

Daily Weather History Graph

Search for Another Location

Airport or City:

Trip Planner

Search our weather history database for the weather conditions in past years. The results will help you decide how hot, cold, wet, or windy it might be!

Date:

Astronomy

Dec. 08, 2012 Rise Set
Actual Time 6:29 AM CST 5:39 PM CST
Civil Twilight 6:06 AM CST 6:02 PM CST
Nautical Twilight 5:39 AM CST 6:29 PM CST
Astronomical Twilight 5:12 AM CST 6:56 PM CST
Moon 1:32 AM CST (12/8) 1:37 PM CST (12/8)
Length of Visible Light 11h 56m
Length of Day
11h 09m
Waning Crescent, 28% of the Moon is Illuminated
Dec 8
Waning Crescent
Dec 13
New
Dec 19
First Quarter
Dec 28
Full
Jan 4
Last Quarter

Hourly Weather History & Observations

Time (CST) Temp. Heat Index Dew Point Humidity Pressure Visibility Wind Dir Wind Speed Gust Speed Precip Events Conditions
5:47 AM 55.4 °F - 53.6 °F 94% 29.87 in 7.0 mi Calm Calm - N/A   Clear
5:50 AM 63 °F - 61 °F 89% 29.86 in 9 mi Calm Calm - -  
6:49 AM 55.4 °F - 53.6 °F 94% 29.97 in 6.0 mi Calm Calm - N/A   Clear
7:41 AM 60.8 °F - 57.2 °F 88% 29.99 in 6.0 mi Calm Calm - N/A   Clear
8:40 AM 69 °F - 64 °F 78% 29.94 in 9 mi East 2.2 mph - -  
8:42 AM 68.0 °F - 59.0 °F 73% 29.93 in 6.0 mi Calm Calm - N/A   Clear
9:42 AM 73.4 °F - 59.0 °F 61% 30.00 in 7.0 mi Calm Calm - N/A   Clear
10:40 AM 77.0 °F - 60.8 °F 57% 29.97 in 8.0 mi East 4.6 mph - N/A   Clear
11:40 AM 80 °F - 67 °F 57% 29.88 in 9 mi ENE 2.2 mph - -   Scattered Clouds
11:41 AM 82.4 °F 82.9 °F 60.8 °F 48% 29.85 in 8.0 mi NNE 3.5 mph - N/A   Clear
12:49 PM 84.2 °F 83.8 °F 59.0 °F 42% 29.88 in 10.0 mi ESE 4.6 mph - N/A   Clear
1:44 PM 86.0 °F 84.9 °F 57.2 °F 37% 29.85 in 10.0 mi SE 4.6 mph - N/A   Clear
2:38 PM 88 °F - 70 °F 45% 29.76 in 9 mi NE 2.2 mph - -   Scattered Clouds
2:52 PM 89.6 °F 88.1 °F 57.2 °F 33% 29.74 in 10.0 mi East 4.6 mph - N/A   Clear
3:42 PM 89.6 °F 87.7 °F 55.4 °F 31% 29.82 in 10.0 mi ESE 4.6 mph - N/A   Clear
4:40 PM 89.6 °F 88.1 °F 57.2 °F 33% 29.83 in 10.0 mi Calm Calm - N/A   Clear
5:40 PM 83 °F - 67 °F 49% 29.76 in 9 mi NW 2.2 mph - -   Scattered Clouds
5:44 PM 77.0 °F - 60.8 °F 57% 29.78 in 10.0 mi Calm Calm - N/A   Clear
6:49 PM 77.0 °F - 59.0 °F 54% 29.87 in 10.0 mi West 4.6 mph - N/A   Clear
7:41 PM 75.2 °F - 59.0 °F 57% 29.90 in 10.0 mi WNW 4.6 mph - N/A   Clear
8:40 PM 68.0 °F - 59.0 °F 73% 29.86 in 10.0 mi Calm Calm - N/A   Clear
8:45 PM 75 °F - 67 °F 70% 29.83 in 9 mi SW 2.2 mph - -  
9:41 PM 69.8 °F - 59.0 °F 68% 29.94 in 10.0 mi West 57.5 mph - N/A   Clear
10:46 PM 68.0 °F - 59.0 °F 73% 29.94 in 10.0 mi WSW 4.6 mph - N/A   Clear
11:43 PM 64.4 °F - 59.0 °F 83% 29.86 in 10.0 mi Calm Calm - N/A   Clear
11:45 PM 71 °F - 66 °F 78% 29.85 in 9 mi SW 2.2 mph - -